Radiation Dose at Monitoring Post of Fukushima Daini Nuclear Power Station
Date,Time,MP-1(microSv/h),MP-2(microSv/h),MP-3(microSv/h),MP-4(microSv/h),MP-5(microSv/h),MP-6(microSv/h),MP-7(microSv/h),Wind Direction,Wind Velocity(m/s),Rain
2016/10/03,00:00,0.383,0.233,0.404,0.374,0.361,0.191,0.164,south,5.2,No
2016/10/03,00:10,0.385,0.234,0.410,0.371,0.362,0.191,0.164,south,5.4,No
2016/10/03,00:20,0.384,0.233,0.404,0.374,0.362,0.191,0.164,south,5.3,No
2016/10/03,00:30,0.385,0.236,0.405,0.374,0.362,0.191,0.163,south,4.0,No
2016/10/03,00:40,0.384,0.234,0.406,0.373,0.362,0.191,0.164,south,6.0,No
2016/10/03,00:50,0.383,0.235,0.405,0.373,0.362,0.192,0.163,south,5.6,No
2016/10/03,01:00,0.386,0.233,0.407,0.373,0.362,0.190,0.166,south,5.6,No
2016/10/03,01:10,0.383,0.235,0.404,0.375,0.361,0.192,0.164,south,5.0,No
2016/10/03,01:20,0.384,0.234,0.406,0.373,0.362,0.192,0.165,south,4.6,No
2016/10/03,01:30,0.382,0.236,0.405,0.375,0.362,0.191,0.163,south,6.3,No
2016/10/03,01:40,0.385,0.235,0.408,0.375,0.364,0.192,0.164,south-southwest,7.3,No
2016/10/03,01:50,0.384,0.234,0.405,0.375,0.360,0.191,0.164,south,8.9,No
2016/10/03,02:00,0.385,0.235,0.406,0.372,0.362,0.191,0.164,south-southwest,9.0,No
2016/10/03,02:10,0.382,0.236,0.404,0.375,0.360,0.190,0.164,south,7.8,No
2016/10/03,02:20,0.384,0.235,0.407,0.373,0.363,0.191,0.163,south-southwest,4.9,No
2016/10/03,02:30,0.385,0.234,0.405,0.373,0.362,0.190,0.163,south,4.5,No
2016/10/03,02:40,0.383,0.236,0.407,0.374,0.361,0.191,0.163,south-southwest,6.9,No
2016/10/03,02:50,0.385,0.234,0.404,0.374,0.362,0.191,0.163,south-southwest,6.1,No
2016/10/03,03:00,0.383,0.235,0.405,0.373,0.361,0.190,0.163,south-southwest,6.3,No
2016/10/03,03:10,0.387,0.234,0.407,0.371,0.363,0.191,0.164,south-southwest,6.8,No
2016/10/03,03:20,0.383,0.236,0.406,0.374,0.361,0.191,0.163,south-southwest,6.7,No
2016/10/03,03:30,0.385,0.233,0.409,0.373,0.364,0.190,0.164,south-southwest,8.3,No
2016/10/03,03:40,0.381,0.235,0.404,0.374,0.359,0.190,0.163,south-southwest,7.6,No
2016/10/03,03:50,0.386,0.235,0.407,0.371,0.363,0.191,0.165,south,7.1,No
2016/10/03,04:00,0.382,0.235,0.404,0.373,0.360,0.190,0.162,south-southwest,8.1,No
2016/10/03,04:10,0.385,0.235,0.407,0.370,0.363,0.191,0.164,south-southwest,8.7,No
2016/10/03,04:20,0.384,0.236,0.403,0.374,0.361,0.190,0.162,south-southwest,8.9,No
2016/10/03,04:30,0.384,0.233,0.407,0.372,0.363,0.191,0.163,south-southwest,8.6,No
2016/10/03,04:40,0.384,0.236,0.405,0.375,0.361,0.190,0.163,south-southwest,6.4,No
2016/10/03,04:50,0.385,0.234,0.407,0.375,0.362,0.191,0.163,south-southwest,6.2,No
2016/10/03,05:00,0.385,0.237,0.405,0.374,0.363,0.190,0.163,south-southwest,7.0,No
2016/10/03,05:10,0.384,0.235,0.406,0.375,0.360,0.190,0.164,south-southwest,7.0,No
2016/10/03,05:20,0.386,0.235,0.406,0.373,0.363,0.191,0.164,south-southwest,6.4,No
2016/10/03,05:30,0.382,0.235,0.404,0.375,0.359,0.191,0.164,south-southwest,7.0,No
2016/10/03,05:40,0.386,0.235,0.407,0.373,0.364,0.191,0.164,south,6.4,No
2016/10/03,05:50,0.383,0.235,0.407,0.373,0.360,0.190,0.163,south,5.0,No
2016/10/03,06:00,0.385,0.235,0.407,0.373,0.362,0.192,0.164,south,2.8,No
2016/10/03,06:10,0.383,0.236,0.404,0.376,0.361,0.191,0.163,south,3.6,No
2016/10/03,06:20,0.386,0.235,0.408,0.373,0.364,0.191,0.164,south,2.8,No
2016/10/03,06:30,0.385,0.236,0.406,0.374,0.362,0.192,0.163,south,2.9,No
2016/10/03,06:40,0.385,0.235,0.405,0.373,0.363,0.191,0.164,south,3.0,No
2016/10/03,06:50,0.384,0.235,0.405,0.374,0.363,0.193,0.163,south,3.6,No
2016/10/03,07:00,0.384,0.234,0.405,0.375,0.362,0.191,0.164,south,4.6,No
2016/10/03,07:10,0.387,0.236,0.408,0.372,0.364,0.191,0.165,south,5.2,No
2016/10/03,07:20,0.383,0.235,0.405,0.375,0.361,0.191,0.164,south,5.5,No
2016/10/03,07:30,0.385,0.235,0.408,0.372,0.363,0.191,0.165,south,6.2,No
2016/10/03,07:40,0.385,0.236,0.406,0.372,0.363,0.192,0.163,south,7.5,No
2016/10/03,07:50,0.382,0.234,0.404,0.374,0.359,0.190,0.163,south,6.7,No
2016/10/03,08:00,0.386,0.233,0.406,0.372,0.362,0.191,0.164,south,5.8,No
2016/10/03,08:10,0.385,0.236,0.404,0.373,0.364,0.192,0.163,south,7.4,No
2016/10/03,08:20,0.382,0.233,0.404,0.372,0.359,0.191,0.161,south,8.4,No
2016/10/03,08:30,0.386,0.234,0.408,0.370,0.357,0.190,0.163,south,7.7,No
2016/10/03,08:40,0.384,0.237,0.404,0.374,0.363,0.190,0.164,south,9.1,No
2016/10/03,08:50,0.380,0.234,0.401,0.373,0.361,0.190,0.161,south,8.2,No
2016/10/03,09:00,0.385,0.233,0.407,0.371,0.360,0.190,0.164,south-southwest,7.6,No
2016/10/03,09:10,0.386,0.232,0.406,0.370,0.361,0.191,0.163,south,6.9,No
2016/10/03,09:20,0.381,0.234,0.403,0.375,0.363,0.190,0.163,south,5.7,No
2016/10/03,09:30,0.380,0.235,0.402,0.374,0.360,0.190,0.161,south,5.0,No
2016/10/03,09:40,0.385,0.233,0.406,0.371,0.358,0.190,0.164,south,5.1,No
2016/10/03,09:50,0.383,0.234,0.405,0.373,0.363,0.191,0.163,south,5.8,No
2016/10/03,10:00,0.381,0.235,0.401,0.375,0.362,0.191,0.163,south,6.7,Yes
2016/10/03,10:10,0.383,0.234,0.407,0.372,0.361,0.189,0.162,south,7.1,No
2016/10/03,10:20,0.387,0.233,0.406,0.370,0.358,0.189,0.163,south-southwest,5.6,No
2016/10/03,10:30,0.383,0.232,0.402,0.374,0.362,0.191,0.162,south-southwest,5.4,No
2016/10/03,10:40,0.382,0.236,0.401,0.374,0.364,0.190,0.162,south,6.2,No
2016/10/03,10:50,0.382,0.235,0.407,0.372,0.361,0.189,0.162,south,6.2,No
2016/10/03,11:00,0.387,0.235,0.407,0.370,0.358,0.191,0.163,south,6.6,No
2016/10/03,11:10,0.385,0.232,0.404,0.371,0.359,0.193,0.164,south,6.2,No
2016/10/03,11:20,0.383,0.234,0.402,0.375,0.359,0.192,0.164,south,6.8,No
2016/10/03,11:30,0.381,0.236,0.402,0.374,0.366,0.190,0.162,south,8.1,No
2016/10/03,11:40,0.385,0.235,0.408,0.372,0.364,0.191,0.163,south,8.1,No
2016/10/03,11:50,0.387,0.235,0.407,0.370,0.358,0.191,0.164,south,7.2,No
2016/10/03,12:00,0.384,0.233,0.404,0.374,0.357,0.190,0.163,south,8.1,No
2016/10/03,12:10,0.381,0.235,0.402,0.374,0.363,0.189,0.162,south,9.0,Yes
2016/10/03,12:20,0.381,0.235,0.407,0.372,0.364,0.190,0.162,south,9.8,Yes
2016/10/03,12:30,0.387,0.234,0.406,0.372,0.360,0.191,0.163,south,8.8,Yes
2016/10/03,12:40,0.385,0.233,0.402,0.375,0.361,0.192,0.163,south,9.5,No
2016/10/03,12:50,0.381,0.236,0.407,0.371,0.364,0.190,0.163,south-southwest,9.5,Yes
2016/10/03,13:00,0.388,0.234,0.406,0.371,0.361,0.191,0.164,south,9.1,Yes
2016/10/03,13:10,0.384,0.234,0.402,0.376,0.360,0.191,0.163,south-southwest,10.8,Yes
2016/10/03,13:20,0.380,0.236,0.405,0.373,0.364,0.191,0.161,south,9.3,No
2016/10/03,13:30,0.386,0.235,0.408,0.370,0.362,0.191,0.164,south,8.8,No
2016/10/03,13:40,0.385,0.233,0.403,0.375,0.359,0.190,0.163,south,8.9,No
2016/10/03,13:50,0.381,0.233,0.402,0.374,0.361,0.191,0.163,south,8.4,No
2016/10/03,14:00,0.382,0.236,0.407,0.371,0.364,0.191,0.162,south,10.2,Yes
2016/10/03,14:10,0.388,0.234,0.406,0.372,0.361,0.191,0.164,south,9.8,No
2016/10/03,14:20,0.383,0.232,0.402,0.375,0.358,0.191,0.164,south,9.6,No
2016/10/03,14:30,0.382,0.235,0.406,0.374,0.363,0.191,0.163,south,11.0,No
2016/10/03,14:40,0.384,0.235,0.406,0.370,0.364,0.190,0.163,south,11.2,No
2016/10/03,14:50,0.387,0.233,0.404,0.374,0.361,0.190,0.163,south,9.8,No
2016/10/03,15:00,0.384,0.234,0.402,0.374,0.359,0.191,0.163,south-southwest,7.4,No
2016/10/03,15:10,0.382,0.235,0.405,0.370,0.362,0.191,0.162,south-southwest,7.8,No
2016/10/03,15:20,0.383,0.236,0.407,0.372,0.364,0.191,0.164,south-southwest,8.6,No
2016/10/03,15:30,0.387,0.232,0.402,0.375,0.361,0.190,0.164,south-southwest,6.6,No
2016/10/03,15:40,0.385,0.234,0.401,0.372,0.358,0.191,0.163,south-southwest,10.1,No
2016/10/03,15:50,0.382,0.235,0.406,0.371,0.363,0.192,0.162,south-southwest,10.1,No
2016/10/03,16:00,0.386,0.235,0.407,0.370,0.363,0.191,0.164,south-southwest,8.4,No
2016/10/03,16:10,0.385,0.232,0.404,0.375,0.360,0.190,0.164,southwest,7.5,No
2016/10/03,16:20,0.384,0.234,0.404,0.373,0.359,0.190,0.162,southwest,5.5,No
2016/10/03,16:30,0.381,0.235,0.408,0.370,0.363,0.191,0.163,south-southwest,6.6,No
2016/10/03,16:40,0.386,0.233,0.405,0.374,0.363,0.191,0.163,southwest,7.3,No
2016/10/03,16:50,0.383,0.234,0.401,0.374,0.359,0.191,0.162,south,7.0,No
2016/10/03,17:00,0.381,0.236,0.405,0.372,0.360,0.191,0.163,south,7.6,No
2016/10/03,17:10,0.387,0.234,0.409,0.371,0.363,0.191,0.164,south,9.2,No
2016/10/03,17:20,0.385,0.233,0.404,0.376,0.360,0.190,0.164,south,8.4,No
2016/10/03,17:30,0.382,0.235,0.402,0.372,0.362,0.191,0.162,south-southwest,8.1,No
2016/10/03,17:40,0.383,0.234,0.407,0.369,0.365,0.191,0.164,south,7.1,No
2016/10/03,17:50,0.387,0.234,0.405,0.376,0.361,0.190,0.163,south-southwest,7.7,No
2016/10/03,18:00,0.381,0.236,0.403,0.373,0.359,0.190,0.163,south-southwest,6.0,No
2016/10/03,18:10,0.383,0.235,0.407,0.370,0.365,0.191,0.164,south-southwest,6.4,No
2016/10/03,18:20,0.386,0.234,0.406,0.374,0.362,0.191,0.164,south,7.3,No
2016/10/03,18:30,0.383,0.235,0.402,0.374,0.359,0.191,0.162,south,8.1,No
2016/10/03,18:40,0.383,0.234,0.407,0.371,0.362,0.192,0.163,south,9.5,No
2016/10/03,18:50,0.387,0.234,0.406,0.372,0.364,0.191,0.164,south,9.6,No
2016/10/03,19:00,0.384,0.235,0.403,0.375,0.359,0.190,0.163,south,8.9,No
2016/10/03,19:10,0.382,0.233,0.404,0.371,0.362,0.192,0.163,south,11.8,No
2016/10/03,19:20,0.386,0.234,0.407,0.372,0.364,0.191,0.164,south-southwest,12.2,No
2016/10/03,19:30,0.384,0.235,0.404,0.375,0.361,0.190,0.162,south,9.2,No
2016/10/03,19:40,0.380,0.233,0.404,0.372,0.362,0.190,0.163,south-southwest,10.4,No
2016/10/03,19:50,0.387,0.234,0.407,0.372,0.364,0.192,0.164,south,10.0,No
2016/10/03,20:00,0.385,0.235,0.405,0.374,0.359,0.189,0.163,south-southwest,10.9,No
2016/10/03,20:10,0.381,0.233,0.405,0.372,0.362,0.192,0.162,south-southwest,11.5,No
2016/10/03,20:20,0.386,0.236,0.408,0.374,0.363,0.190,0.162,south-southwest,9.0,No
2016/10/03,20:30,0.384,0.235,0.405,0.374,0.359,0.190,0.162,south-southwest,8.0,No
2016/10/03,20:40,0.381,0.234,0.403,0.371,0.362,0.191,0.164,south,8.8,No
2016/10/03,20:50,0.385,0.236,0.408,0.375,0.363,0.189,0.163,south,10.2,No
2016/10/03,21:00,0.384,0.235,0.404,0.373,0.360,0.189,0.162,south-southwest,8.5,No
2016/10/03,21:10,0.382,0.233,0.404,0.372,0.364,0.191,0.164,south,8.1,No
2016/10/03,21:20,0.385,0.234,0.409,0.376,0.362,0.191,0.163,south,8.1,No
2016/10/03,21:30,0.384,0.234,0.403,0.373,0.361,0.190,0.163,south,8.1,No
2016/10/03,21:40,0.384,0.233,0.404,0.373,0.362,0.190,0.164,south-southwest,7.3,No
2016/10/03,21:50,0.385,0.235,0.407,0.373,0.361,0.189,0.163,south-southwest,6.2,No
2016/10/03,22:00,0.382,0.233,0.404,0.373,0.362,0.190,0.165,south,5.4,No
2016/10/03,22:10,0.385,0.233,0.407,0.373,0.363,0.191,0.164,south,5.7,No
2016/10/03,22:20,0.383,0.234,0.405,0.373,0.360,0.190,0.163,south-southwest,6.7,No
2016/10/03,22:30,0.382,0.233,0.403,0.371,0.363,0.192,0.164,south,5.4,No
2016/10/03,22:40,0.385,0.236,0.407,0.376,0.362,0.191,0.162,south,4.5,No
2016/10/03,22:50,0.385,0.234,0.406,0.374,0.361,0.190,0.164,south-southwest,5.7,No
2016/10/03,23:00,0.384,0.234,0.405,0.372,0.364,0.192,0.164,south-southwest,5.1,No
2016/10/03,23:10,0.383,0.235,0.408,0.375,0.360,0.191,0.163,south,3.9,No
2016/10/03,23:20,0.383,0.234,0.405,0.372,0.363,0.192,0.165,south-southwest,3.1,No
2016/10/03,23:30,0.386,0.235,0.406,0.375,0.362,0.191,0.164,south-southwest,2.9,No
2016/10/03,23:40,0.385,0.233,0.405,0.374,0.362,0.191,0.164,south-southwest,3.6,No
2016/10/03,23:50,0.383,0.236,0.405,0.372,0.364,0.192,0.164,south-southwest,4.6,No
